Retour au catalogue

FENGYUN 1C DEB

ActifPO
NORAD 31966·DEBRIS·🇨🇳 China

Lancé May 10, 1999 depuis Taiyuan Satellite Launch Center

Loading…

Prochains Passages (prochaines 24 heures)

TLE

VieillissantSource: Space-Track

Époque: Sep 9, 2026, 18:29 UTC

1 31966U 99025CNT 26252.77061359  .00004081  00000-0  64444-3 0  9993
2 31966  99.0367  78.8392 0082036 156.1202 204.3841 14.70776718697231

Suivez FENGYUN 1C DEB en temps réel avec AllMySat

Download on the App Store